[[{"header":{"parameterUnit":"m.s-1","parameterCategory":1,"la1":30.2991,"la2":30.254,"lo1":-89.0895,"lo2":-89.0444,"dy":0.0017,"dx":0.0017,"nx":28,"ny":28,"refTime":"2024-03-03T09:00:00:Z","depth":0,"parameterNumber":2,"parameterNumberName":"U-component_of_WINDS"},"data":[0,0,0,0,0,0,0,0,0,0,0,0,0,0,0,0,0,0,0,0,0,0,0,0,0,0,0,0,0,0,0,0,0,0,0,0,0,0,0,0,0,0,0,0,0,0,0,0,0,0,0,0,0,0,0,0,0,0,-7.7918,-7.792,0,-7.8066,-7.8067,-7.8069,-7.8067,-7.8065,-7.8063,-7.8061,-7.82,-7.8206,-7.8211,0,0,0,0,0,0,0,0,0,0,0,0,0,-7.7624,-7.763,-7.7918,-7.792,-7.7922,-7.8065,-7.8067,-7.8069,-7.8067,-7.8064,-7.8062,-7.806,-7.8198,-7.8205,-7.8212,0,0,0,0,0,0,0,0,0,0,0,0,0,-7.776,-7.7632,-7.7917,-7.7938,-7.7941,-7.8065,-7.8068,-7.807,-7.8067,-7.8064,-7.8061,-7.8059,-7.8196,-7.8204,-7.8213,-7.8322,0,0,-7.8238,-7.8241,0,0,0,0,0,0,0,0,-7.7752,-7.777,-7.7933,-7.7937,-7.7941,-7.8045,-7.8015,-7.8154,-7.8068,-7.8019,-7.8061,-7.8057,-7.815,-7.8162,-7.8196,-7.8329,-7.8335,-7.8239,-7.8244,-7.8247,-7.825,0,0,0,0,0,0,0,-7.7743,-7.7764,-7.7976,-7.7935,-7.794,-7.7937,-7.7953,-7.8041,-7.8099,-7.8023,-7.8023,-7.8042,-7.8152,-7.8188,-7.8199,-7.8337,-7.8238,-7.8246,-7.8251,-7.8254,-7.8569,-7.8572,0,0,0,0,0,0,-7.7731,-7.7756,-7.7971,-7.798,-7.7838,-7.7944,-7.7962,-7.8014,-7.8098,-7.8108,-7.8044,-7.8041,-7.8175,-7.8189,-7.8204,-7.8338,-7.8247,-7.8255,-7.826,-7.8565,-7.8569,-7.8573,0,0,0,0,0,0,-7.7724,-7.775,-7.7965,-7.7869,-7.7896,-7.7953,-7.8011,-7.8019,-7.8055,-7.8114,-7.8123,-7.8071,-7.8173,-7.8192,-7.8294,-7.8343,-7.8259,-7.8266,-7.8561,-7.8566,-7.8571,-7.8606,0,0,0,0,0,0,-7.7716,-7.7748,-7.7791,-7.787,-7.7901,-7.8055,-7.8014,-7.8024,-7.8071,-7.8068,-7.8142,-7.8151,-7.8173,-7.8282,-7.8302,-7.8353,-7.8273,-7.8557,-7.8564,-7.8569,-7.8601,-7.8612,-7.8622,0,0,0,0,0,-7.7705,-7.7792,-7.7794,-7.7819,-7.7958,-7.8058,-7.8076,-7.8102,-7.8075,-7.8118,-7.8156,-7.8148,-7.8335,-7.8292,-7.8315,-7.8369,-7.8554,-7.8562,-7.8569,-7.8596,-7.861,-7.8621,0,0,0,0,0,0,-7.7712,-7.7803,-7.7805,-7.7921,-7.7983,-7.8058,-7.8112,-7.8115,-7.8183,-7.8177,-7.8204,-7.8221,-7.8322,-7.8356,-7.8306,-7.848,-7.8441,-7.8453,-7.8454,-7.8467,-7.8477,-7.8465,-7.828,0,0,0,0,0,-7.7729,-7.7806,-7.788,-7.7974,-7.8006,-7.8055,-7.8099,-7.8115,-7.8178,-7.8203,-7.8248,-7.8307,-7.8379,-7.8425,-7.8495,-7.8608,-7.8623,-7.8656,-7.8667,-7.8675,-7.8684,-7.8746,-7.8762,-7.8598,-7.8598,-7.8598,0,0,-7.776,-7.7819,-7.7865,-7.7978,-7.8027,-7.8104,-7.8076,-7.8157,-7.8214,-7.8214,-7.8313,-7.835,-7.8417,-7.8525,-7.8575,-7.8556,-7.8734,-7.8684,-7.869,-7.8695,-7.8756,-7.8771,-7.8785,-7.8603,-7.8602,-7.8601,0,0,-7.7857,-7.7911,-7.7996,-7.8048,-7.8126,-7.8159,-7.8179,-7.8256,-7.8281,-7.8383,-7.8385,-7.8452,-7.8576,-7.8624,-7.8665,-7.8786,-7.8781,-7.8808,-7.8859,-7.892,-7.8933,-7.8944,-7.8986,-7.9001,-7.8818,-7.8818,-7.8818,0,-7.7884,-7.8004,-7.8038,-7.8122,-7.8171,-7.8181,-7.8266,-7.8314,-7.8408,-7.8441,-7.842,-7.8578,-7.8624,-7.8744,-7.8774,-7.8808,-7.883,-7.8797,-7.8929,-7.8941,-7.8952,-7.8992,-7.9008,-7.8821,-7.882,-7.882,-7.882,0,-7.8034,-7.8117,-7.8176,-7.8273,-7.8329,-7.8413,-7.8458,-7.851,-7.8523,-7.8557,-7.8661,-7.8718,-7.88,-7.883,-7.8841,-7.8952,-7.8939,-7.8924,-7.8884,-7.897,-7.9008,-7.9023,-7.8824,-7.8823,-7.8823,-7.8822,0,0,-7.8133,-7.8253,-7.8274,-7.8319,-7.8408,-7.8471,-7.8556,-7.8641,-7.8684,-7.8751,-7.8821,-7.8928,-7.8917,-7.8963,-7.898,-7.9034,-7.9126,-7.9013,-7.9015,-7.903,-7.9251,-7.9259,-7.9276,-7.9126,-7.9129,-7.9131,-7.9244,0,-7.8237,-7.8392,-7.8427,-7.8558,-7.8635,-7.8649,-7.8722,-7.8784,-7.882,-7.8887,-7.8925,-7.9001,-7.8981,-7.9009,-7.9063,-7.9103,-7.917,-7.9096,-7.9187,-7.919,-7.9166,-7.9296,-7.9304,-7.9408,-7.926,-7.9262,-7.9264,0,-7.8378,-7.8453,-7.8593,-7.8676,-7.8709,-7.8775,-7.8857,-7.8923,-7.8993,-7.9015,-7.9071,-7.9084,-7.9171,-7.9131,-7.925,-7.9199,-7.924,-7.9266,-7.927,-7.9276,-7.9229,-7.9303,-7.9442,-7.9456,-7.9288,-7.9286,-7.9284,0,-7.8433,-7.857,-7.8672,-7.871,-7.8809,-7.8855,-7.8898,-7.8966,-7.9016,-7.9087,-7.9119,-7.9198,-7.924,-7.9301,-7.9334,-7.9303,-7.9451,-7.9414,-7.9469,-7.9468,-7.9495,-7.9492,-7.9639,-7.9527,-7.9527,-7.9527,-7.9526,0,-7.8544,-7.8628,-7.8699,-7.8761,-7.8856,-7.8897,-7.8989,-7.9031,-7.9093,-7.9161,-7.9178,-7.9241,-7.9285,-7.9354,-7.9381,-7.9475,-7.9494,-7.9513,-7.9518,-7.9509,-7.9506,-7.9532,-7.9524,-7.9531,-7.953,-7.9529,-7.9528,0,-7.8619,-7.8671,-7.8783,-7.887,-7.8894,-7.896,-7.9033,-7.9093,-7.9132,-7.9219,-7.9241,-7.93,-7.9383,-7.9425,-7.9527,-7.9545,-7.9651,-7.9653,-7.9628,-7.9629,-7.9681,-7.9674,-7.9847,-7.9871,-7.9746,-7.9747,-7.9748,0,-7.8684,-7.8751,-7.8847,-7.8897,-7.8942,-7.9021,-7.9074,-7.9118,-7.9171,-7.9259,-7.9308,-7.9393,-7.9463,-7.9595,-7.9645,-7.9723,-7.9726,-7.9781,-7.9737,-7.9727,-7.9723,-7.9718,-7.9724,-7.9787,-7.9788,-7.9789,-7.979,0,-7.8794,-7.8818,-7.8895,-7.8983,-7.9046,-7.9116,-7.9184,-7.9223,-7.9277,-7.9337,-7.9424,-7.9479,-7.9587,-7.967,-7.9753,-7.9794,-7.98,-7.9805,-7.9821,-7.981,-7.9792,-7.98,-7.9645,-7.9799,-7.9798,-7.9797,-7.9797,-7.9796,-7.8864,-7.8925,-7.9003,-7.9089,-7.9147,-7.9212,-7.9273,-7.9323,-7.9398,-7.9491,-7.9512,-7.9604,-7.9675,-7.9788,-7.9833,-7.9904,-7.9892,-7.9916,-7.9921,-7.9925,-7.9927,-7.9785,-7.992,-7.9919,-7.9919,-7.9919,-7.9919,0,-7.8973,-7.9026,-7.9105,-7.9203,-7.9271,-7.9278,-7.9355,-7.941,-7.9493,-7.956,-7.9631,-7.9732,-7.9814,-7.9874,-7.9957,-8.0003,-8.0008,-8.0023,-8.0018,-8.0027,-7.9934,-7.9911,-8.0018,-8.0018,-8.0018,-8.0018,-8.0018,-8.0018,-7.9037,-7.9139,-7.9173,-7.9304,-7.9355,-7.9449,-7.9493,-7.9552,-7.9607,-7.972,-7.9791,-7.9831,-7.9895,-7.9984,-8.006,-8.0075,-8.0103,-8.0118,-8.0133,-8.0044,-8.0033,-8.0023,-8.0001,-8.0125,-8.0125,-8.0219,-8.022,-8.0221]},{"header":{"parameterUnit":"m.s-1","parameterCategory":1,"la1":30.2991,"la2":30.254,"lo1":-89.0895,"lo2":-89.0444,"dy":0.0017,"dx":0.0017,"nx":28,"ny":28,"refTime":"2024-03-03T09:00:00:Z","depth":0,"parameterNumber":3,"parameterNumberName":"V-component_of_WINDS"},"data":[0,0,0,0,0,0,0,0,0,0,0,0,0,0,0,0,0,0,0,0,0,0,0,0,0,0,0,0,0,0,0,0,0,0,0,0,0,0,0,0,0,0,0,0,0,0,0,0,0,0,0,0,0,0,0,0,0,0,1.6095,1.6093,0,1.5875,1.5873,1.587,1.5724,1.5723,1.5722,1.5721,1.5498,1.5493,1.5489,0,0,0,0,0,0,0,0,0,0,0,0,0,1.6396,1.6391,1.6096,1.6093,1.609,1.5876,1.5873,1.587,1.5724,1.5723,1.5722,1.572,1.55,1.5494,1.5488,0,0,0,0,0,0,0,0,0,0,0,0,0,1.623,1.639,1.6096,1.5992,1.598,1.5876,1.5872,1.5869,1.5724,1.5723,1.5721,1.572,1.5502,1.5495,1.5487,1.5471,0,0,1.5464,1.5461,0,0,0,0,0,0,0,0,1.624,1.6219,1.601,1.5999,1.5985,1.5825,1.5897,1.5735,1.5725,1.5821,1.5721,1.5719,1.5609,1.5592,1.5554,1.546,1.5451,1.5464,1.5459,1.5456,1.5454,0,0,0,0,0,0,0,1.6251,1.6228,1.6008,1.6007,1.5992,1.5958,1.5932,1.5865,1.5726,1.5813,1.5802,1.5778,1.5602,1.5562,1.5548,1.5448,1.5464,1.5457,1.5453,1.545,1.5333,1.5335,0,0,0,0,0,0,1.6279,1.6238,1.6015,1.6002,1.6111,1.5953,1.5925,1.5878,1.5726,1.5702,1.5779,1.5772,1.5575,1.5557,1.554,1.5512,1.5456,1.5449,1.5445,1.5332,1.5334,1.5335,0,0,0,0,0,0,1.6286,1.626,1.6024,1.6117,1.6084,1.595,1.5899,1.5875,1.5834,1.5701,1.5676,1.5763,1.5573,1.555,1.549,1.5502,1.5446,1.5439,1.533,1.5332,1.5334,1.5456,0,0,0,0,0,0,1.6295,1.6263,1.6254,1.6118,1.608,1.5977,1.5899,1.5872,1.5822,1.581,1.568,1.5657,1.557,1.5502,1.5482,1.5491,1.5433,1.5328,1.5331,1.5334,1.545,1.5462,1.5472,0,0,0,0,0,1.6306,1.6297,1.6254,1.6228,1.6065,1.5977,1.5956,1.5856,1.5823,1.5814,1.5729,1.5661,1.5505,1.5497,1.5474,1.548,1.5327,1.533,1.5334,1.5446,1.546,1.5472,0,0,0,0,0,0,1.6438,1.6277,1.6228,1.6174,1.6091,1.5953,1.5937,1.5874,1.5798,1.5791,1.5671,1.5643,1.5596,1.5532,1.5526,1.5458,1.5408,1.5407,1.5501,1.5514,1.5524,1.5541,1.5427,0,0,0,0,0,1.6461,1.6402,1.6265,1.6231,1.6192,1.6073,1.6031,1.5961,1.587,1.5834,1.5744,1.566,1.5592,1.5549,1.5479,1.5442,1.5412,1.5435,1.5446,1.5456,1.5456,1.5434,1.5443,1.5346,1.5345,1.5345,0,0,1.6507,1.6412,1.6382,1.6255,1.6182,1.6126,1.6044,1.5986,1.5944,1.5826,1.5763,1.5695,1.5593,1.5545,1.5519,1.549,1.5477,1.546,1.5469,1.5463,1.5438,1.5448,1.5456,1.5348,1.5347,1.5347,0,0,1.6563,1.6485,1.6449,1.6378,1.6269,1.6191,1.6183,1.6055,1.6006,1.5941,1.5852,1.5802,1.5686,1.5618,1.5568,1.5604,1.554,1.5585,1.5641,1.5622,1.5629,1.5636,1.565,1.5656,1.5586,1.5586,1.5586,0,1.6635,1.6544,1.6439,1.6387,1.6335,1.6227,1.6192,1.6129,1.6003,1.5971,1.594,1.5796,1.5719,1.5655,1.5664,1.5627,1.5616,1.5598,1.5637,1.5642,1.5646,1.5659,1.5664,1.5592,1.5591,1.5591,1.559,0,1.6639,1.6578,1.6563,1.6444,1.6391,1.6348,1.6238,1.6197,1.6135,1.6061,1.5998,1.5904,1.5814,1.5794,1.5731,1.5722,1.5707,1.5659,1.5606,1.5664,1.5673,1.5677,1.5601,1.5599,1.5597,1.5595,0,0,1.6767,1.6594,1.659,1.6537,1.6411,1.6363,1.6318,1.6229,1.6198,1.6116,1.6076,1.5983,1.5938,1.5883,1.5812,1.5795,1.5832,1.5748,1.5744,1.5768,1.5819,1.5856,1.5863,1.579,1.579,1.579,1.5828,0,1.6804,1.6714,1.662,1.6564,1.6508,1.6408,1.6368,1.6288,1.6219,1.6163,1.6087,1.6024,1.5969,1.5935,1.5914,1.5832,1.5841,1.5828,1.5753,1.5751,1.5781,1.5868,1.5906,1.5946,1.5831,1.5831,1.5832,0,1.6833,1.6758,1.6697,1.658,1.6553,1.6519,1.6432,1.638,1.6289,1.624,1.6181,1.6106,1.6056,1.6011,1.5941,1.5935,1.5899,1.5855,1.5854,1.5843,1.5795,1.586,1.5955,1.5962,1.5836,1.5836,1.5835,0,1.6935,1.6818,1.6767,1.6724,1.6586,1.6565,1.6507,1.6414,1.6369,1.6295,1.6264,1.6186,1.6143,1.6085,1.5993,1.5968,1.5934,1.588,1.5894,1.5896,1.589,1.5892,1.5982,1.5868,1.5867,1.5867,1.5867,0,1.6986,1.6953,1.6811,1.678,1.6741,1.6635,1.66,1.6533,1.6453,1.6409,1.6317,1.6278,1.6159,1.6106,1.6035,1.5989,1.597,1.5931,1.5912,1.5939,1.5944,1.5913,1.5909,1.5869,1.5868,1.5868,1.5868,0,1.7092,1.6995,1.6933,1.6809,1.6777,1.6754,1.6648,1.6616,1.6543,1.6489,1.647,1.6356,1.629,1.6193,1.6097,1.605,1.6016,1.5985,1.6047,1.6035,1.6055,1.6055,1.6128,1.6134,1.6017,1.6018,1.6019,0,1.713,1.7102,1.6976,1.694,1.6885,1.6827,1.6781,1.6678,1.6634,1.6531,1.6512,1.6439,1.6374,1.6274,1.6184,1.6112,1.6079,1.611,1.6067,1.6097,1.6081,1.6084,1.6082,1.612,1.6122,1.6123,1.6125,0,1.7209,1.7164,1.71,1.7021,1.6969,1.6902,1.683,1.6807,1.6688,1.6644,1.6576,1.6527,1.643,1.636,1.6276,1.6218,1.6153,1.6139,1.6139,1.6166,1.6203,1.6185,1.6075,1.6138,1.6136,1.6135,1.6135,1.6134,1.7282,1.7254,1.7162,1.7095,1.7032,1.6968,1.6932,1.6856,1.6797,1.671,1.6654,1.659,1.6503,1.6384,1.633,1.628,1.6252,1.6251,1.625,1.6252,1.6262,1.6212,1.6264,1.6263,1.6263,1.6262,1.6262,0,1.7357,1.7294,1.7234,1.7138,1.7087,1.7031,1.695,1.6911,1.6856,1.678,1.672,1.6644,1.6576,1.6483,1.6409,1.6387,1.6356,1.6372,1.6372,1.6361,1.629,1.6299,1.6398,1.6398,1.6398,1.6398,1.6398,1.6398,1.739,1.7341,1.7286,1.7206,1.7143,1.7079,1.7038,1.698,1.692,1.6839,1.6783,1.6722,1.6641,1.6561,1.6498,1.6472,1.645,1.6476,1.6441,1.6377,1.6365,1.6353,1.636,1.6471,1.6471,1.6515,1.6516,1.6516]}]]